Regional Weather Roundup
Issued by NWS Grand Forks, ND

Home | Current Version | Previous Version | Graphics & Text | Print | Product List | Glossary On
Versions: 1 2 3 4 5 6 7 8 9 10 11 12 13 14 15 16 17 18 19 20 21 22 23 24 25 26 27 28 29 30 31 32 33 34 35 36 37 38 39 40 41 42 43 44 45 46 47 48 49 50
000
ASUS43 KFGF 171810
RWRFGF
PRAIRIE TO PINES  WEATHER ROUNDUP
NATIONAL WEATHER SERVICE EASTERN NORTH DAKOTA/GRAND FORKS ND
100 PM CDT FRI APR 17 2015

 **SATELLITE DATA USED TO AUGMENT SKY COVER AT AUTOMATED STATIONS**
 *****  WEATHER ACROSS EASTERN NORTH DAKOTA  *****

CITY           SKY/WX    TMP DP  RH WIND       PRES   REMARKS
GRAND FORKS    SUNNY     71  20  14 W20G26    30.06F
6HR MIN TEMP:  28; 6HR MAX TEMP:  72;

GRAND FRKS AFB SUNNY     72  19  13 W18G25    30.06F
GRAND FRKS NWS   N/A     70 N/A N/A NW18        N/A
DEVILS LAKE    SUNNY     68  21  17 W17       30.07F
6HR MIN TEMP:  37; 6HR MAX TEMP:  68;

FARGO          SUNNY     71  22  15 MISG      30.09F
WAHPETON ARPT  CLEAR     68  18  14 W10       30.12F
$$

 ***** WEATHER ACROSS CENTRAL AND WESTERN NORTH DAKOTA  *****

CITY           SKY/WX    TMP DP  RH WIND       PRES   REMARKS
BISMARCK       SUNNY     69  20  15 NW12      30.15F
6HR MIN TEMP:  24; 6HR MAX TEMP:  69;

MINOT          SUNNY     68  25  19 NW16      30.12S
6HR MIN TEMP:  40; 6HR MAX TEMP:  68;

JAMESTOWN      SUNNY     68  18  14 W13G18    30.12F
6HR MIN TEMP:  28; 6HR MAX TEMP:  68;

MINOT AFB      SUNNY     65  27  23 NW15G22   30.11S
GARRISON         N/A     70  25  18 NW17      30.13F
WILLISTON      SUNNY     67  25  20 VRB3      30.17F
6HR MIN TEMP:  34; 6HR MAX TEMP:  67;

DICKINSON      SUNNY     65  17  15 N10       30.16F
6HR MIN TEMP:  31; 6HR MAX TEMP:  65;

HETTINGER      SUNNY     61  19  19 CALM      30.19F
6HR MIN TEMP:  22; 6HR MAX TEMP:  64;

$$

 *****  OTHER AIRPORT OBSERVATIONS IN OUR AREA  *****

CITY           SKY/WX    TMP DP  RH WIND       PRES   REMARKS
WALHALLA       FAIR      72  27  18 W15G24    30.02S
GRAFTON AIRPOR FAIR      70  28  21 W20G30    30.04F
VALLEY CITY AR FAIR      66  23  19 W12G21    30.12F
CANDO          FAIR      68  27  21 W17G25    30.08S
CAVALIER APRT  FAIR      72  27  18 W17G25    30.01F
GWINNER        CLEAR     68  27  21 NW5       30.14F
SHEYENNE NWR     N/A     70  22  16 NW6       29.95S
ROLLA          FAIR      63  28  27 NW23      30.10R
 ***** THE ABOVE OBSERVATIONS ARE NON NWS ARE NOT QUALITY
       CONTROLLED AND MAY MIS-REPORT RAIN FOR SNOW...
$$

  *****  WEATHER ACROSS NORTHERN MINNESOTA  *****

CITY           SKY/WX    TMP DP  RH WIND       PRES   REMARKS
FLAG ISLAND    NOT AVBL
WARROAD        SUNNY     66  32  28 SW22G28   29.98F
ROSEAU         SUNNY     70  19  14 W22G29    29.98F
HALLOCK        SUNNY     73   9   8 W23G31    29.99F
THF RVR FALLS  SUNNY     68  23  18 SW17      30.06F
6HR MIN TEMP:  30; 6HR MAX TEMP:  68;

BAUDETTE       SUNNY     68  25  19 W18G33    29.99F
6HR MIN TEMP:  35; 6HR MAX TEMP:  68;

WASKISH        SUNNY     61  32  33 SW14      30.06F
CROOKSTON      SUNNY     70  19  14 W18G25    30.07F
STEPHEN NDAWN    N/A     73  19  13 W18         N/A
GREENBUSH NDAW   N/A     72  21  15 W22         N/A
$$
  *****  WEATHER ACROSS CENTRAL AND WEST MINNESOTA  *****

CITY           SKY/WX    TMP DP  RH WIND       PRES   REMARKS
FOSSTON        SUNNY     64  23  20 W15G24    30.09F
BEMIDJI        SUNNY     66  25  21 W17       30.07F
PARK RAPIDS    SUNNY     69  21  16 W8G16     30.08F
6HR MIN TEMP:  31; 6HR MAX TEMP:  69;

ELBOW LAKE     FAIR      65  22  19 W7        30.12F
6HR MIN TEMP:  41; 6HR MAX TEMP:  66;

WADENA         SUNNY     66  28  24 W12       30.10F
DETROIT LAKES  SUNNY     64  23  20 W9        30.12F
MOORHEAD         N/A    N/A N/A N/A W7G18     30.11F
FERGUS FALLS   SUNNY     66  12  12 N7G16     30.12F
MORRIS MN      SUNNY     68  23  18 NW12      30.10F
STAPLES        SUNNY     66  23  19 W7G16     30.10F
$$
  *****  WEATHER ELSEWHERE ACROSS MINNESOTA  *****

CITY           SKY/WX    TMP DP  RH WIND       PRES   REMARKS
DULUTH         SUNNY     68  31  25 W14       30.05F
6HR MIN TEMP:  43; 6HR MAX TEMP:  68;

INTRNTL FALLS  SUNNY     66  23  19 W18G25    30.00F
6HR MIN TEMP:  26; 6HR MAX TEMP:  66;

ELY            SUNNY     63  21  20 W5G16     30.02F
CLOQUET        SUNNY     66  19  16 S5        30.06F
WHEATON        SUNNY     64  25  22 NW10      30.13F
BRAINERD       SUNNY     65  21  18 CALM      30.09F
6HR MIN TEMP:  36; 6HR MAX TEMP:  66;

HIBBING        SUNNY     68  24  19 W9        30.05F
6HR MIN TEMP:  29; 6HR MAX TEMP:  68;

ALEXANDRIA     SUNNY     66  27  23 VRB3      30.11F
6HR MIN TEMP:  42; 6HR MAX TEMP:  66;

SAINT CLOUD    SUNNY     67  36  31 NW9       30.09F
6HR MIN TEMP:  43; 6HR MAX TEMP:  67;

MINNEAPOLIS    MOSUNNY   70  43  37 N3        30.07F
6HR MIN TEMP:  51; 6HR MAX TEMP:  71;

$$

  *****  WEATHER ACROSS SOUTH DAKOTA  *****

CITY           SKY/WX    TMP DP  RH WIND       PRES   REMARKS
SIOUX FALLS    MOSUNNY   73  44  35 NE3       30.09F
6HR MIN TEMP:  44; 6HR MAX TEMP:  74;

BROOKINGS      SUNNY     68  32  26 N12       30.11F
WATERTOWN      SUNNY     67  20  16 VRB3      30.13F
6HR MIN TEMP:  37; 6HR MAX TEMP:  68;

HURON          SUNNY     70  26  19 VRB6      30.13F
6HR MIN TEMP:  40; 6HR MAX TEMP:  72;

SISSETON         N/A     68  19  15 N7        30.11F
ABERDEEN       SUNNY     69  23  17 NW10      30.13F
6HR MIN TEMP:  35; 6HR MAX TEMP:  69;

MITCHELL       SUNNY     72  39  30 NE8       30.12F
PIERRE         MOSUNNY   68  31  25 N7        30.14F
6HR MIN TEMP:  37; 6HR MAX TEMP:  68;

MOBRIDGE       SUNNY     66  21  18 NW8       30.15F
RAPID CITY     CLOUDY    55  34  45 N9        30.20F
6HR MIN TEMP:  36; 6HR MAX TEMP:  55;

$$

  *****  SOME WEATHER IN NEARBY STATES *****

CITY           SKY/WX    TMP DP  RH WIND       PRES   REMARKS
GLASGOW MT     SUNNY     62  28  27 VRB6      30.17F
6HR MIN TEMP:  33; 6HR MAX TEMP:  62;

GREAT FALLS MT SUNNY     59  29  31 SW9       30.17F
6HR MIN TEMP:  32; 6HR MAX TEMP:  59;

CHEYENNE WY    LGT SNOW  34  32  92 N17G26    30.05S FOG     WCI  23
6HR MIN TEMP:  33; 6HR MAX TEMP:  35; 6HR PCP:  0.36;

SCOTTSBLUFF NE LGT RAIN  48  48 100 NE16G26   30.07F
6HR MIN TEMP:  44; 6HR MAX TEMP:  48; 6HR PCP:  0.37;

OMAHA NE       PTSUNNY   75  51  43 E8        30.05F
6HR MIN TEMP:  54; 6HR MAX TEMP:  75;

DES MOINES IA  MOSUNNY   76  49  38 VRB5      30.07F
6HR MIN TEMP:  53; 6HR MAX TEMP:  77;

DAVENPORT IA   MOSUNNY   76  48  37 VRB5      30.06F
6HR MIN TEMP:  50; 6HR MAX TEMP:  77;

CHICAGO IL     MOSUNNY   75  45  34 VRB6      30.05F
6HR MIN TEMP:  49; 6HR MAX TEMP:  76;

EAU CLAIRE WI  PTSUNNY   73  44  35 N6        30.04F
6HR MIN TEMP:  46; 6HR MAX TEMP:  73;

LA CROSSE WI   SUNNY     76  46  34 NW7       30.04F
6HR MIN TEMP:  52; 6HR MAX TEMP:  76;

$$

  *****  SOME NATIONAL WEATHER *****

CITY           SKY/WX    TMP DP  RH WIND       PRES   REMARKS
LA GUARDIA NY  CLOUDY    64  53  67 W9        29.97F
6HR MIN TEMP:  56; 6HR MAX TEMP:  64;

RALEIGH NC     PTSUNNY   74  64  71 VRB3      30.09F
6HR MIN TEMP:  60; 6HR MAX TEMP:  74; 6HR PCP: TRACE;

ATLANTA GA     LGT RAIN  61  57  87 NE5       30.10F
6HR MIN TEMP:  55; 6HR MAX TEMP:  61; 6HR PCP:  0.21;

NEW ORLEANS LA PTSUNNY   77  71  82 S8        29.99F
6HR MIN TEMP:  69; 6HR MAX TEMP:  77; 6HR PCP: TRACE;

OKLAHOMA CITY  PTSUNNY   70  55  59 SE6       29.99F
6HR MIN TEMP:  58; 6HR MAX TEMP:  71; 6HR PCP:  0.07;

ALBUQUERQUE NM PTSUNNY   50  11  20 VRB6      30.07F
6HR MIN TEMP:  30; 6HR MAX TEMP:  50;

SALT LAKE CITY PTSUNNY   54  33  45 N13       30.12S
6HR MIN TEMP:  39; 6HR MAX TEMP:  55;




USA.gov is the U.S. government's official web portal to all federal, state and local government web resources and services.